,,PressureMeas_1m,,PRMeasQMR101_1,,RHStat155_1m_1,,SRMeasQMS101R_1m,,TAStat155_1m_1,,GenWind_1,,GenWind_1,
2018-10-30, 00:00:06,VALID,917.122,VALID,0.0,VALID,99.167,VALID,0.038,VALID,20.241,VALID,140.0,VALID,0.0,
2018-10-30, 00:01:06,VALID,917.102,VALID,0.0,VALID,99.18,VALID,0.016,VALID,20.31,VALID,151.0,VALID,0.0,
2018-10-30, 00:02:06,VALID,917.089,VALID,0.0,VALID,99.165,VALID,0.01,VALID,20.289,VALID,161.0,VALID,0.0,
2018-10-30, 00:03:06,VALID,917.058,VALID,0.0,VALID,99.166,VALID,0.02,VALID,20.288,VALID,168.0,VALID,0.0,
2018-10-30, 00:04:06,VALID,917.028,VALID,0.0,VALID,99.163,VALID,0.029,VALID,20.277,VALID,157.0,VALID,0.0,
2018-10-30, 00:05:06,VALID,916.994,VALID,0.0,VALID,99.181,VALID,0.01,VALID,20.255,VALID,174.0,VALID,0.0,
2018-10-30, 00:06:06,VALID,917.0,VALID,0.0,VALID,99.148,VALID,0.01,VALID,20.234,VALID,172.0,VALID,0.0,
2018-10-30, 00:07:06,VALID,916.955,VALID,0.0,VALID,99.175,VALID,0.015,VALID,20.253,VALID,164.0,VALID,0.0,
2018-10-30, 00:08:06,VALID,916.922,VALID,0.0,VALID,99.17,VALID,-0.004,VALID,20.268,VALID,155.0,VALID,0.0,
2018-10-30, 00:09:06,VALID,916.888,VALID,0.0,VALID,99.174,VALID,0.009,VALID,20.273,VALID,142.0,VALID,0.0,
2018-10-30, 00:10:06,VALID,916.859,VALID,0.0,VALID,99.181,VALID,0.006,VALID,20.253,VALID,148.0,VALID,0.0,
2018-10-30, 00:11:06,VALID,916.836,VALID,0.0,VALID,99.183,VALID,-0.0,VALID,20.255,VALID,143.0,VALID,0.0,
2018-10-30, 00:12:06,VALID,916.806,VALID,0.0,VALID,99.159,VALID,0.008,VALID,20.21,VALID,135.0,VALID,0.0,
2018-10-30, 00:13:06,VALID,916.773,VALID,0.0,VALID,99.161,VALID,0.004,VALID,20.2,VALID,150.0,VALID,0.0,
2018-10-30, 00:14:06,VALID,916.786,VALID,0.0,VALID,99.165,VALID,0.009,VALID,20.179,VALID,131.0,VALID,0.0,
2018-10-30, 00:15:06,VALID,916.763,VALID,0.0,VALID,99.147,VALID,0.019,VALID,20.139,VALID,127.0,VALID,0.0,
2018-10-30, 00:16:06,VALID,916.732,VALID,0.0,VALID,99.156,VALID,0.017,VALID,20.102,VALID,117.0,VALID,0.0,
2018-10-30, 00:17:06,VALID,916.708,VALID,0.0,VALID,99.126,VALID,0.018,VALID,20.068,VALID,130.0,VALID,0.0,
2018-10-30, 00:18:06,VALID,916.691,VALID,0.0,VALID,99.148,VALID,0.024,VALID,20.069,VALID,127.0,VALID,0.0,
2018-10-30, 00:19:06,VALID,916.668,VALID,0.0,VALID,99.126,VALID,0.03,VALID,20.054,VALID,115.0,VALID,0.0,
2018-10-30, 00:20:06,VALID,916.656,VALID,0.0,VALID,99.118,VALID,0.021,VALID,20.055,VALID,177.0,VALID,0.0,
2018-10-30, 00:21:06,VALID,916.639,VALID,0.0,VALID,99.113,VALID,0.023,VALID,20.097,VALID,156.0,VALID,0.0,
2018-10-30, 00:22:06,VALID,916.644,VALID,0.0,VALID,99.093,VALID,0.011,VALID,20.14,VALID,204.0,VALID,0.0,
2018-10-30, 00:23:06,VALID,916.639,VALID,0.0,VALID,99.089,VALID,0.018,VALID,20.12,VALID,204.0,VALID,0.0,
2018-10-30, 00:24:06,VALID,916.618,VALID,0.0,VALID,99.089,VALID,-0.002,VALID,20.135,VALID,194.0,VALID,0.0,
2018-10-30, 00:25:06,VALID,916.612,VALID,0.0,VALID,99.068,VALID,0.009,VALID,20.138,VALID,181.0,VALID,0.0,
2018-10-30, 00:26:06,VALID,916.597,VALID,0.0,VALID,99.066,VALID,-0.006,VALID,20.145,VALID,182.0,VALID,0.0,
2018-10-30, 00:27:06,VALID,916.547,VALID,0.0,VALID,99.085,VALID,0.005,VALID,20.143,VALID,200.0,VALID,0.0,
2018-10-30, 00:28:06,VALID,916.536,VALID,0.0,VALID,99.083,VALID,0.008,VALID,20.164,VALID,234.0,VALID,0.0,
2018-10-30, 00:29:06,VALID,916.513,VALID,0.0,VALID,99.089,VALID,-0.001,VALID,20.162,VALID,248.0,VALID,0.0,
2018-10-30, 00:30:06,VALID,916.497,VALID,0.0,VALID,99.079,VALID,0.004,VALID,20.155,VALID,271.0,VALID,0.0,
2018-10-30, 00:31:06,VALID,916.484,VALID,0.0,VALID,99.087,VALID,-0.007,VALID,20.15,VALID,256.0,VALID,0.0,
2018-10-30, 00:32:06,VALID,916.463,VALID,0.0,VALID,99.097,VALID,0.011,VALID,20.201,VALID,256.0,VALID,0.0,
2018-10-30, 00:33:06,VALID,916.447,VALID,0.0,VALID,99.087,VALID,0.001,VALID,20.189,VALID,256.0,VALID,0.0,
2018-10-30, 00:34:06,VALID,916.409,VALID,0.0,VALID,99.093,VALID,0.013,VALID,20.195,VALID,259.0,VALID,0.0,
2018-10-30, 00:35:06,VALID,916.389,VALID,0.0,VALID,99.092,VALID,-0.001,VALID,20.208,VALID,265.0,VALID,0.0,
2018-10-30, 00:36:06,VALID,916.363,VALID,0.0,VALID,99.124,VALID,-0.006,VALID,20.232,VALID,8.0,VALID,0.0,
2018-10-30, 00:37:06,VALID,916.346,VALID,0.0,VALID,99.05,VALID,-0.019,VALID,20.127,VALID,17.0,VALID,0.0,
2018-10-30, 00:38:06,VALID,916.311,VALID,0.0,VALID,99.04,VALID,-0.013,VALID,20.089,VALID,3.0,VALID,0.0,
2018-10-30, 00:39:06,VALID,916.294,VALID,0.0,VALID,99.08,VALID,-0.001,VALID,20.086,VALID,1.0,VALID,0.0,
2018-10-30, 00:40:06,VALID,916.274,VALID,0.0,VALID,99.09,VALID,-0.0,VALID,20.105,VALID,1.0,VALID,0.0,
2018-10-30, 00:41:06,VALID,916.246,VALID,0.0,VALID,99.14,VALID,-0.01,VALID,20.153,VALID,1.0,VALID,0.0,
2018-10-30, 00:42:06,VALID,916.219,VALID,0.0,VALID,99.14,VALID,0.013,VALID,20.193,VALID,12.0,VALID,0.0,
2018-10-30, 00:43:06,VALID,916.185,VALID,0.0,VALID,99.154,VALID,0.014,VALID,20.237,VALID,17.0,VALID,0.0,
2018-10-30, 00:44:06,VALID,916.149,VALID,0.0,VALID,99.139,VALID,0.001,VALID,20.236,VALID,44.0,VALID,0.0,
2018-10-30, 00:45:06,VALID,916.109,VALID,0.0,VALID,99.09,VALID,-0.008,VALID,20.194,VALID,75.0,VALID,0.0,
2018-10-30, 00:46:06,VALID,916.085,VALID,0.0,VALID,99.09,VALID,-0.003,VALID,20.152,VALID,87.0,VALID,0.0,
2018-10-30, 00:47:06,VALID,916.04,VALID,0.0,VALID,99.101,VALID,-0.005,VALID,20.144,VALID,116.0,VALID,0.0,
2018-10-30, 00:48:06,VALID,916.013,VALID,0.0,VALID,99.122,VALID,0.001,VALID,20.149,VALID,135.0,VALID,0.0,
2018-10-30, 00:49:06,VALID,915.976,VALID,0.0,VALID,99.127,VALID,-0.002,VALID,20.193,VALID,143.0,VALID,0.0,
2018-10-30, 00:50:06,VALID,915.943,VALID,0.0,VALID,99.15,VALID,-0.011,VALID,20.21,VALID,146.0,VALID,0.0,
2018-10-30, 00:51:06,VALID,915.908,VALID,0.0,VALID,99.143,VALID,-0.003,VALID,20.223,VALID,158.0,VALID,0.0,
2018-10-30, 00:52:06,VALID,915.889,VALID,0.0,VALID,99.136,VALID,-0.002,VALID,20.226,VALID,137.0,VALID,0.0,
2018-10-30, 00:53:06,VALID,915.882,VALID,0.0,VALID,99.114,VALID,-0.002,VALID,20.201,VALID,137.0,VALID,0.0,
2018-10-30, 00:54:06,VALID,915.877,VALID,0.0,VALID,99.145,VALID,0.011,VALID,20.219,VALID,144.0,VALID,0.0,
2018-10-30, 00:55:06,VALID,915.85,VALID,0.0,VALID,99.133,VALID,0.012,VALID,20.223,VALID,145.0,VALID,0.0,
2018-10-30, 00:56:06,VALID,915.875,VALID,0.0,VALID,99.13,VALID,0.007,VALID,20.217,VALID,163.0,VALID,0.0,
2018-10-30, 00:57:06,VALID,915.854,VALID,0.0,VALID,99.121,VALID,-0.0,VALID,20.196,VALID,149.0,VALID,0.0,
2018-10-30, 00:58:06,VALID,915.856,VALID,0.0,VALID,99.121,VALID,0.008,VALID,20.188,VALID,122.0,VALID,0.0,
2018-10-30, 00:59:06,VALID,915.856,VALID,0.0,VALID,99.118,VALID,0.024,VALID,20.201,VALID,152.0,VALID,0.0,
2018-10-30, 01:00:06,VALID,915.832,VALID,0.0,VALID,99.131,VALID,0.027,VALID,20.198,VALID,158.0,VALID,0.0,
2018-10-30, 01:01:06,VALID,915.823,VALID,0.0,VALID,99.115,VALID,0.017,VALID,20.198,VALID,132.0,VALID,0.0,
2018-10-30, 01:02:06,VALID,915.82,VALID,0.0,VALID,99.115,VALID,0.017,VALID,20.198,VALID,135.0,VALID,0.0,
2018-10-30, 01:03:06,VALID,915.829,VALID,0.0,VALID,99.11,VALID,0.011,VALID,20.169,VALID,164.0,VALID,0.0,
2018-10-30, 01:04:06,VALID,915.813,VALID,0.0,VALID,99.071,VALID,0.006,VALID,20.125,VALID,168.0,VALID,0.0,
2018-10-30, 01:05:06,VALID,915.839,VALID,0.0,VALID,99.081,VALID,0.023,VALID,20.126,VALID,165.0,VALID,0.0,
2018-10-30, 01:06:06,VALID,915.846,VALID,0.0,VALID,99.099,VALID,0.023,VALID,20.124,VALID,178.0,VALID,0.0,
2018-10-30, 01:07:06,VALID,915.864,VALID,0.0,VALID,99.084,VALID,0.019,VALID,20.11,VALID,178.0,VALID,0.0,
2018-10-30, 01:08:06,VALID,915.872,VALID,0.0,VALID,99.091,VALID,0.002,VALID,20.094,VALID,175.0,VALID,0.0,
2018-10-30, 01:09:06,VALID,915.875,VALID,0.0,VALID,99.072,VALID,0.006,VALID,20.074,VALID,180.0,VALID,0.0,
2018-10-30, 01:10:06,VALID,915.868,VALID,0.0,VALID,99.084,VALID,0.004,VALID,20.074,VALID,171.0,VALID,0.0,
2018-10-30, 01:11:06,VALID,915.883,VALID,0.0,VALID,99.071,VALID,0.012,VALID,20.073,VALID,176.0,VALID,0.0,
2018-10-30, 01:12:06,VALID,915.855,VALID,0.0,VALID,99.076,VALID,0.01,VALID,20.081,VALID,176.0,VALID,0.0,
2018-10-30, 01:13:06,VALID,915.844,VALID,0.0,VALID,99.1,VALID,0.002,VALID,20.082,VALID,150.0,VALID,0.0,
2018-10-30, 01:14:06,VALID,915.817,VALID,0.0,VALID,99.082,VALID,0.009,VALID,20.074,VALID,133.0,VALID,0.0,
2018-10-30, 01:15:06,VALID,915.803,VALID,0.0,VALID,99.093,VALID,0.016,VALID,20.087,VALID,138.0,VALID,0.0,
2018-10-30, 01:16:06,VALID,915.785,VALID,0.0,VALID,99.083,VALID,0.006,VALID,20.087,VALID,124.0,VALID,0.0,
2018-10-30, 01:17:06,VALID,915.772,VALID,0.0,VALID,99.078,VALID,0.008,VALID,20.079,VALID,114.0,VALID,0.0,
2018-10-30, 01:18:06,VALID,915.757,VALID,0.0,VALID,99.061,VALID,0.028,VALID,20.062,VALID,112.0,VALID,0.0,
2018-10-30, 01:19:06,VALID,915.734,VALID,0.0,VALID,99.059,VALID,0.015,VALID,20.051,VALID,129.0,VALID,0.0,
2018-10-30, 01:20:06,VALID,915.717,VALID,0.0,VALID,99.064,VALID,0.006,VALID,20.068,VALID,127.0,VALID,0.0,
2018-10-30, 01:21:06,VALID,915.726,VALID,0.0,VALID,99.067,VALID,0.022,VALID,20.067,VALID,119.0,VALID,0.0,
2018-10-30, 01:22:06,VALID,915.713,VALID,0.0,VALID,99.065,VALID,0.007,VALID,20.044,VALID,117.0,VALID,0.0,
2018-10-30, 01:23:06,VALID,915.695,VALID,0.0,VALID,99.031,VALID,0.006,VALID,20.025,VALID,119.0,VALID,0.0,
2018-10-30, 01:24:06,VALID,915.693,VALID,0.0,VALID,99.044,VALID,-0.01,VALID,20.015,VALID,121.0,VALID,0.0,
2018-10-30, 01:25:06,VALID,915.697,VALID,0.0,VALID,99.042,VALID,-0.0,VALID,20.013,VALID,116.0,VALID,0.0,
2018-10-30, 01:26:06,VALID,915.695,VALID,0.0,VALID,99.023,VALID,-0.021,VALID,20.003,VALID,118.0,VALID,0.0,
2018-10-30, 01:27:06,VALID,915.717,VALID,0.0,VALID,99.021,VALID,-0.003,VALID,19.999,VALID,113.0,VALID,0.0,
2018-10-30, 01:28:06,VALID,915.716,VALID,0.0,VALID,99.003,VALID,-0.025,VALID,20.008,VALID,125.0,VALID,0.0,
2018-10-30, 01:29:06,VALID,915.745,VALID,0.0,VALID,98.991,VALID,-0.024,VALID,20.036,VALID,132.0,VALID,0.0,
2018-10-30, 01:30:06,VALID,915.746,VALID,0.0,VALID,98.976,VALID,-0.018,VALID,20.079,VALID,150.0,VALID,0.0,
2018-10-30, 01:31:06,VALID,915.765,VALID,0.0,VALID,98.953,VALID,-0.016,VALID,20.117,VALID,149.0,VALID,0.0,
2018-10-30, 01:32:06,VALID,915.736,VALID,0.0,VALID,98.925,VALID,-0.0,VALID,20.105,VALID,132.0,VALID,0.0,
2018-10-30, 01:33:06,VALID,915.765,VALID,0.0,VALID,98.926,VALID,-0.004,VALID,20.112,VALID,173.0,VALID,0.0,
2018-10-30, 01:34:06,VALID,915.775,VALID,0.0,VALID,98.915,VALID,-0.012,VALID,20.126,VALID,133.0,VALID,0.0,
2018-10-30, 01:35:06,VALID,915.786,VALID,0.0,VALID,98.904,VALID,-0.016,VALID,20.126,VALID,186.0,VALID,0.0,
2018-10-30, 01:36:06,VALID,915.786,VALID,0.0,VALID,98.885,VALID,-0.018,VALID,20.127,VALID,147.0,VALID,0.0,
2018-10-30, 01:37:06,VALID,915.8,VALID,0.0,VALID,98.877,VALID,-0.021,VALID,20.112,VALID,142.0,VALID,0.0,
2018-10-30, 01:38:06,VALID,915.814,VALID,0.0,VALID,98.875,VALID,-0.04,VALID,20.106,VALID,157.0,VALID,0.0,
2018-10-30, 01:39:06,VALID,915.811,VALID,0.0,VALID,98.892,VALID,0.01,VALID,20.1,VALID,134.0,VALID,0.0,
2018-10-30, 01:40:06,VALID,915.836,VALID,0.0,VALID,98.926,VALID,-0.002,VALID,20.103,VALID,129.0,VALID,0.0,
2018-10-30, 01:41:06,VALID,915.832,VALID,0.0,VALID,98.923,VALID,0.002,VALID,20.096,VALID,122.0,VALID,0.0,
2018-10-30, 01:42:06,VALID,915.839,VALID,0.0,VALID,98.916,VALID,0.004,VALID,20.078,VALID,131.0,VALID,0.0,
2018-10-30, 01:43:06,VALID,915.84,VALID,0.0,VALID,98.917,VALID,0.015,VALID,20.056,VALID,115.0,VALID,0.0,
2018-10-30, 01:44:06,VALID,915.819,VALID,0.0,VALID,98.935,VALID,0.014,VALID,20.037,VALID,124.0,VALID,0.0,
2018-10-30, 01:45:06,VALID,915.815,VALID,0.0,VALID,98.949,VALID,0.022,VALID,20.032,VALID,115.0,VALID,0.0,
2018-10-30, 01:46:06,VALID,915.775,VALID,0.0,VALID,98.952,VALID,0.006,VALID,20.028,VALID,128.0,VALID,0.0,
2018-10-30, 01:47:06,VALID,915.735,VALID,0.0,VALID,98.939,VALID,0.005,VALID,20.033,VALID,105.0,VALID,0.0,
2018-10-30, 01:48:06,VALID,915.697,VALID,0.0,VALID,98.944,VALID,0.002,VALID,20.016,VALID,81.0,VALID,0.0,
2018-10-30, 01:49:06,VALID,915.664,VALID,0.0,VALID,98.932,VALID,-0.015,VALID,20.004,VALID,51.0,VALID,0.0,
2018-10-30, 01:50:06,VALID,915.64,VALID,0.0,VALID,98.912,VALID,0.014,VALID,19.986,VALID,61.0,VALID,0.0,
2018-10-30, 01:51:06,VALID,915.623,VALID,0.0,VALID,98.889,VALID,0.001,VALID,19.976,VALID,57.0,VALID,0.0,
2018-10-30, 01:52:06,VALID,915.606,VALID,0.0,VALID,98.865,VALID,-0.015,VALID,19.954,VALID,45.0,VALID,0.0,
2018-10-30, 01:53:06,VALID,915.597,VALID,0.0,VALID,98.811,VALID,0.001,VALID,19.916,VALID,31.0,VALID,0.0,
2018-10-30, 01:54:06,VALID,915.562,VALID,0.0,VALID,98.826,VALID,-0.002,VALID,19.888,VALID,29.0,VALID,0.0,
2018-10-30, 01:55:06,VALID,915.554,VALID,0.0,VALID,98.824,VALID,0.02,VALID,19.879,VALID,41.0,VALID,0.0,
2018-10-30, 01:56:06,VALID,915.534,VALID,0.0,VALID,98.842,VALID,0.013,VALID,19.865,VALID,43.0,VALID,0.0,
2018-10-30, 01:57:06,VALID,915.521,VALID,0.0,VALID,98.848,VALID,0.001,VALID,19.852,VALID,51.0,VALID,0.0,
2018-10-30, 01:58:06,VALID,915.536,VALID,0.0,VALID,98.879,VALID,0.007,VALID,19.842,VALID,59.0,VALID,0.0,
2018-10-30, 01:59:06,VALID,915.537,VALID,0.0,VALID,98.894,VALID,-0.002,VALID,19.835,VALID,65.0,VALID,0.0,
2018-10-30, 02:00:06,VALID,915.527,VALID,0.0,VALID,98.906,VALID,0.015,VALID,19.832,VALID,73.0,VALID,0.0,
2018-10-30, 02:01:06,VALID,915.544,VALID,0.0,VALID,98.913,VALID,0.008,VALID,19.829,VALID,84.0,VALID,0.0,
2018-10-30, 02:02:06,VALID,915.559,VALID,0.0,VALID,98.905,VALID,-0.013,VALID,19.828,VALID,95.0,VALID,0.0,
2018-10-30, 02:03:06,VALID,915.563,VALID,0.0,VALID,98.859,VALID,0.001,VALID,19.804,VALID,96.0,VALID,0.0,
2018-10-30, 02:04:06,VALID,915.559,VALID,0.0,VALID,98.848,VALID,-0.008,VALID,19.787,VALID,103.0,VALID,0.0,
2018-10-30, 02:05:06,VALID,915.553,VALID,0.0,VALID,98.829,VALID,-0.004,VALID,19.788,VALID,113.0,VALID,0.0,
2018-10-30, 02:06:06,VALID,915.565,VALID,0.0,VALID,98.852,VALID,-0.015,VALID,19.806,VALID,103.0,VALID,0.0,
2018-10-30, 02:07:06,VALID,915.534,VALID,0.0,VALID,98.863,VALID,0.002,VALID,19.803,VALID,112.0,VALID,0.0,
2018-10-30, 02:08:06,VALID,915.526,VALID,0.0,VALID,98.87,VALID,-0.009,VALID,19.775,VALID,114.0,VALID,0.0,
2018-10-30, 02:09:06,VALID,915.504,VALID,0.0,VALID,98.845,VALID,-0.006,VALID,19.75,VALID,109.0,VALID,0.0,
2018-10-30, 02:10:06,VALID,915.503,VALID,0.0,VALID,98.868,VALID,-0.0,VALID,19.737,VALID,96.0,VALID,0.0,
2018-10-30, 02:11:06,VALID,915.495,VALID,0.0,VALID,98.82,VALID,0.021,VALID,19.703,VALID,87.0,VALID,0.0,
2018-10-30, 02:12:06,VALID,915.488,VALID,0.0,VALID,98.769,VALID,0.013,VALID,19.688,VALID,79.0,VALID,0.0,
2018-10-30, 02:13:06,VALID,915.47,VALID,0.0,VALID,98.749,VALID,0.018,VALID,19.69,VALID,74.0,VALID,0.0,
2018-10-30, 02:14:06,VALID,915.474,VALID,0.0,VALID,98.718,VALID,-0.001,VALID,19.696,VALID,84.0,VALID,0.0,
2018-10-30, 02:15:06,VALID,915.466,VALID,0.0,VALID,98.66,VALID,0.01,VALID,19.696,VALID,86.0,VALID,0.0,
2018-10-30, 02:16:06,VALID,915.485,VALID,0.0,VALID,98.602,VALID,0.008,VALID,19.691,VALID,93.0,VALID,0.0,
2018-10-30, 02:17:06,VALID,915.474,VALID,0.0,VALID,98.547,VALID,-0.002,VALID,19.694,VALID,100.0,VALID,0.0,
2018-10-30, 02:18:06,VALID,915.493,VALID,0.0,VALID,98.438,VALID,0.028,VALID,19.702,VALID,101.0,VALID,0.0,
2018-10-30, 02:19:06,VALID,915.506,VALID,0.0,VALID,98.318,VALID,0.012,VALID,19.716,VALID,104.0,VALID,0.0,
2018-10-30, 02:20:06,VALID,915.52,VALID,0.0,VALID,98.243,VALID,0.016,VALID,19.726,VALID,98.0,VALID,0.0,
2018-10-30, 02:21:06,VALID,915.534,VALID,0.0,VALID,98.17,VALID,0.024,VALID,19.744,VALID,91.0,VALID,0.0,
2018-10-30, 02:22:06,VALID,915.577,VALID,0.0,VALID,98.087,VALID,0.026,VALID,19.763,VALID,79.0,VALID,0.0,
2018-10-30, 02:23:06,VALID,915.577,VALID,0.0,VALID,98.018,VALID,0.009,VALID,19.758,VALID,79.0,VALID,0.0,
2018-10-30, 02:24:06,VALID,915.597,VALID,0.0,VALID,97.954,VALID,-0.006,VALID,19.741,VALID,80.0,VALID,0.0,
2018-10-30, 02:25:06,VALID,915.598,VALID,0.0,VALID,97.964,VALID,-0.008,VALID,19.73,VALID,80.0,VALID,0.0,
2018-10-30, 02:26:06,VALID,915.584,VALID,0.0,VALID,98.007,VALID,-0.015,VALID,19.735,VALID,84.0,VALID,0.0,
2018-10-30, 02:27:06,VALID,915.593,VALID,0.0,VALID,98.051,VALID,-0.026,VALID,19.732,VALID,84.0,VALID,0.0,
2018-10-30, 02:28:06,VALID,915.588,VALID,0.0,VALID,98.071,VALID,-0.029,VALID,19.732,VALID,84.0,VALID,0.0,
2018-10-30, 02:29:06,VALID,915.572,VALID,0.0,VALID,98.088,VALID,-0.039,VALID,19.739,VALID,84.0,VALID,0.0,
2018-10-30, 02:30:06,VALID,915.543,VALID,0.0,VALID,98.074,VALID,-0.015,VALID,19.742,VALID,84.0,VALID,0.0,
2018-10-30, 02:31:06,VALID,915.541,VALID,0.0,VALID,98.021,VALID,-0.025,VALID,19.746,VALID,102.0,VALID,0.0,
2018-10-30, 02:32:06,VALID,915.511,VALID,0.0,VALID,97.955,VALID,-0.02,VALID,19.746,VALID,105.0,VALID,0.0,
2018-10-30, 02:33:06,VALID,915.521,VALID,0.0,VALID,97.912,VALID,-0.023,VALID,19.736,VALID,108.0,VALID,0.0,
2018-10-30, 02:34:06,VALID,915.516,VALID,0.0,VALID,97.845,VALID,-0.013,VALID,19.713,VALID,104.0,VALID,0.0,
2018-10-30, 02:35:06,VALID,915.509,VALID,0.0,VALID,97.871,VALID,-0.024,VALID,19.697,VALID,107.0,VALID,0.0,
2018-10-30, 02:36:07,VALID,915.521,VALID,0.0,VALID,97.9,VALID,-0.027,VALID,19.687,VALID,126.0,VALID,0.0,
2018-10-30, 02:37:07,VALID,915.523,VALID,0.0,VALID,97.962,VALID,-0.026,VALID,19.697,VALID,121.0,VALID,0.0,
2018-10-30, 02:38:07,VALID,915.539,VALID,0.0,VALID,98.075,VALID,-0.013,VALID,19.721,VALID,132.0,VALID,0.0,
2018-10-30, 02:39:07,VALID,915.535,VALID,0.0,VALID,98.068,VALID,0.003,VALID,19.737,VALID,120.0,VALID,0.0,
2018-10-30, 02:40:07,VALID,915.533,VALID,0.0,VALID,97.985,VALID,0.001,VALID,19.718,VALID,94.0,VALID,0.0,
2018-10-30, 02:41:07,VALID,915.523,VALID,0.0,VALID,97.863,VALID,-0.003,VALID,19.69,VALID,86.0,VALID,0.0,
2018-10-30, 02:42:07,VALID,915.525,VALID,0.0,VALID,97.833,VALID,0.009,VALID,19.699,VALID,87.0,VALID,0.0,
2018-10-30, 02:43:07,VALID,915.52,VALID,0.0,VALID,97.812,VALID,0.01,VALID,19.707,VALID,101.0,VALID,0.0,
2018-10-30, 02:44:07,VALID,915.515,VALID,0.0,VALID,97.782,VALID,-0.005,VALID,19.727,VALID,95.0,VALID,0.0,
2018-10-30, 02:45:07,VALID,915.525,VALID,0.0,VALID,97.693,VALID,0.018,VALID,19.738,VALID,95.0,VALID,0.0,
2018-10-30, 02:46:07,VALID,915.502,VALID,0.0,VALID,97.551,VALID,-0.006,VALID,19.755,VALID,94.0,VALID,0.0,
2018-10-30, 02:47:07,VALID,915.49,VALID,0.0,VALID,97.429,VALID,0.004,VALID,19.775,VALID,87.0,VALID,0.0,
2018-10-30, 02:48:07,VALID,915.483,VALID,0.0,VALID,97.329,VALID,0.009,VALID,19.807,VALID,79.0,VALID,0.0,
2018-10-30, 02:49:07,VALID,915.47,VALID,0.0,VALID,97.234,VALID,0.004,VALID,19.827,VALID,76.0,VALID,0.0,
2018-10-30, 02:50:07,VALID,915.443,VALID,0.0,VALID,97.204,VALID,-0.001,VALID,19.821,VALID,72.0,VALID,0.0,
2018-10-30, 02:51:07,VALID,915.452,VALID,0.0,VALID,97.224,VALID,-0.005,VALID,19.81,VALID,65.0,VALID,0.0,
2018-10-30, 02:52:07,VALID,915.428,VALID,0.0,VALID,97.304,VALID,-0.008,VALID,19.803,VALID,63.0,VALID,0.0,
2018-10-30, 02:53:07,VALID,915.441,VALID,0.0,VALID,97.331,VALID,-0.002,VALID,19.789,VALID,63.0,VALID,0.0,
2018-10-30, 02:54:07,VALID,915.458,VALID,0.0,VALID,97.425,VALID,-0.004,VALID,19.786,VALID,65.0,VALID,0.0,
2018-10-30, 02:55:07,VALID,915.457,VALID,0.0,VALID,97.475,VALID,-0.015,VALID,19.783,VALID,66.0,VALID,0.0,
2018-10-30, 02:56:07,VALID,915.459,VALID,0.0,VALID,97.546,VALID,-0.011,VALID,19.788,VALID,65.0,VALID,0.0,
2018-10-30, 02:57:07,VALID,915.456,VALID,0.0,VALID,97.499,VALID,-0.014,VALID,19.767,VALID,311.0,VALID,0.0,
2018-10-30, 02:58:07,VALID,915.439,VALID,0.0,VALID,97.563,VALID,-0.012,VALID,19.745,VALID,302.0,VALID,0.0,
2018-10-30, 02:59:07,VALID,915.43,VALID,0.0,VALID,97.594,VALID,-0.005,VALID,19.701,VALID,322.0,VALID,0.0,
2018-10-30, 03:00:07,VALID,915.419,VALID,0.0,VALID,97.689,VALID,0.005,VALID,19.665,VALID,323.0,VALID,0.0,
2018-10-30, 03:01:07,VALID,915.406,VALID,0.0,VALID,97.797,VALID,-0.017,VALID,19.632,VALID,328.0,VALID,0.0,
2018-10-30, 03:02:07,VALID,915.4,VALID,0.0,VALID,97.97,VALID,-0.021,VALID,19.615,VALID,332.0,VALID,0.0,
2018-10-30, 03:03:07,VALID,915.365,VALID,0.0,VALID,97.998,VALID,-0.014,VALID,19.563,VALID,333.0,VALID,0.0,
2018-10-30, 03:04:07,VALID,915.35,VALID,0.0,VALID,98.117,VALID,-0.013,VALID,19.537,VALID,333.0,VALID,0.0,
2018-10-30, 03:05:07,VALID,915.33,VALID,0.0,VALID,98.223,VALID,-0.026,VALID,19.519,VALID,333.0,VALID,0.0,
2018-10-30, 03:06:07,VALID,915.312,VALID,0.0,VALID,98.288,VALID,-0.003,VALID,19.503,VALID,357.0,VALID,0.0,
2018-10-30, 03:07:07,VALID,915.285,VALID,0.0,VALID,98.321,VALID,-0.021,VALID,19.465,VALID,81.0,VALID,0.0,
2018-10-30, 03:08:07,VALID,915.286,VALID,0.0,VALID,98.369,VALID,-0.026,VALID,19.437,VALID,91.0,VALID,0.0,
2018-10-30, 03:09:07,VALID,915.27,VALID,0.0,VALID,98.404,VALID,-0.005,VALID,19.409,VALID,120.0,VALID,0.0,
2018-10-30, 03:10:07,VALID,915.256,VALID,0.0,VALID,98.445,VALID,0.004,VALID,19.383,VALID,135.0,VALID,0.0,
2018-10-30, 03:11:07,VALID,915.248,VALID,0.0,VALID,98.503,VALID,0.004,VALID,19.37,VALID,131.0,VALID,0.0,
2018-10-30, 03:12:07,VALID,915.244,VALID,0.0,VALID,98.602,VALID,0.007,VALID,19.368,VALID,117.0,VALID,0.0,
2018-10-30, 03:13:07,VALID,915.213,VALID,0.0,VALID,98.621,VALID,-0.011,VALID,19.343,VALID,120.0,VALID,0.0,
2018-10-30, 03:14:07,VALID,915.213,VALID,0.0,VALID,98.645,VALID,-0.007,VALID,19.32,VALID,127.0,VALID,0.0,
2018-10-30, 03:15:07,VALID,915.225,VALID,0.0,VALID,98.709,VALID,-0.005,VALID,19.324,VALID,122.0,VALID,0.0,
2018-10-30, 03:16:07,VALID,915.218,VALID,0.0,VALID,98.72,VALID,0.014,VALID,19.281,VALID,103.0,VALID,0.0,
2018-10-30, 03:17:07,VALID,915.24,VALID,0.0,VALID,98.773,VALID,-0.006,VALID,19.308,VALID,100.0,VALID,0.0,
2018-10-30, 03:18:07,VALID,915.237,VALID,0.0,VALID,98.879,VALID,-0.001,VALID,19.368,VALID,94.0,VALID,0.0,
2018-10-30, 03:19:07,VALID,915.25,VALID,0.0,VALID,98.895,VALID,-0.006,VALID,19.37,VALID,89.0,VALID,0.0,
2018-10-30, 03:20:07,VALID,915.252,VALID,0.0,VALID,98.858,VALID,-0.006,VALID,19.347,VALID,89.0,VALID,0.0,
2018-10-30, 03:21:07,VALID,915.284,VALID,0.0,VALID,98.863,VALID,0.02,VALID,19.325,VALID,89.0,VALID,0.0,
2018-10-30, 03:22:07,VALID,915.285,VALID,0.0,VALID,98.853,VALID,0.0,VALID,19.313,VALID,89.0,VALID,0.0,
2018-10-30, 03:23:07,VALID,915.288,VALID,0.0,VALID,98.866,VALID,-0.013,VALID,19.307,VALID,89.0,VALID,0.0,
2018-10-30, 03:24:07,VALID,915.303,VALID,0.0,VALID,98.882,VALID,-0.001,VALID,19.299,VALID,89.0,VALID,0.0,
2018-10-30, 03:25:07,VALID,915.299,VALID,0.0,VALID,98.927,VALID,0.017,VALID,19.318,VALID,89.0,VALID,0.0,
2018-10-30, 03:26:07,VALID,915.288,VALID,0.0,VALID,98.943,VALID,0.035,VALID,19.366,VALID,89.0,VALID,0.0,
2018-10-30, 03:27:07,VALID,915.296,VALID,0.0,VALID,98.985,VALID,0.039,VALID,19.403,VALID,89.0,VALID,0.0,
2018-10-30, 03:28:07,VALID,915.289,VALID,0.0,VALID,98.975,VALID,0.025,VALID,19.41,VALID,89.0,VALID,0.0,
2018-10-30, 03:29:07,VALID,915.281,VALID,0.0,VALID,98.951,VALID,0.023,VALID,19.372,VALID,89.0,VALID,0.0,
2018-10-30, 03:30:07,VALID,915.286,VALID,0.0,VALID,98.938,VALID,0.02,VALID,19.337,VALID,103.0,VALID,0.0,
2018-10-30, 03:31:07,VALID,915.3,VALID,0.0,VALID,98.949,VALID,0.006,VALID,19.328,VALID,113.0,VALID,0.0,
2018-10-30, 03:32:07,VALID,915.317,VALID,0.0,VALID,98.955,VALID,0.009,VALID,19.319,VALID,117.0,VALID,0.0,
2018-10-30, 03:33:07,VALID,915.309,VALID,0.0,VALID,98.972,VALID,0.012,VALID,19.352,VALID,130.0,VALID,0.0,
2018-10-30, 03:34:07,VALID,915.327,VALID,0.0,VALID,98.986,VALID,0.033,VALID,19.357,VALID,147.0,VALID,0.0,
2018-10-30, 03:35:07,VALID,915.302,VALID,0.0,VALID,98.987,VALID,0.024,VALID,19.378,VALID,158.0,VALID,0.0,
2018-10-30, 03:36:07,VALID,915.317,VALID,0.0,VALID,99.009,VALID,0.024,VALID,19.424,VALID,158.0,VALID,0.0,
2018-10-30, 03:37:07,VALID,915.315,VALID,0.0,VALID,99.024,VALID,0.002,VALID,19.455,VALID,158.0,VALID,0.0,
2018-10-30, 03:38:07,VALID,915.32,VALID,0.0,VALID,99.008,VALID,0.017,VALID,19.475,VALID,158.0,VALID,0.0,
2018-10-30, 03:39:07,VALID,915.309,VALID,0.0,VALID,98.997,VALID,0.002,VALID,19.467,VALID,157.0,VALID,0.0,
2018-10-30, 03:40:07,VALID,915.274,VALID,0.0,VALID,98.889,VALID,0.006,VALID,19.372,VALID,146.0,VALID,0.0,
2018-10-30, 03:41:07,VALID,915.262,VALID,0.0,VALID,98.846,VALID,0.001,VALID,19.316,VALID,116.0,VALID,0.0,
2018-10-30, 03:42:07,VALID,915.235,VALID,0.0,VALID,98.85,VALID,-0.001,VALID,19.304,VALID,102.0,VALID,0.0,
2018-10-30, 03:43:07,VALID,915.242,VALID,0.0,VALID,98.893,VALID,0.009,VALID,19.335,VALID,97.0,VALID,0.0,